Location: San Gennaro Vesuviano
(40.8833°N, 14.5333°E)
Time: 22:47:52
(UTC+00:00)

Okean-O - Pass Details

Date: 22 April 2021
Orbit: 639 x 640 km, 98.2° (Epoch: 10 May)

Event Time Altitude Azimuth Distance (km) Brightness Sun altitude
Rises 18:28:01 0° 185° (S) 2,929 5.8 -7.7°
Reaches altitude 10° 18:30:20 10° 193° (SSW) 2,024 5.1 -8.1°
Maximum altitude 18:34:26 38° 262° (W) 988 4.2 -8.8°
Drops below altitude 10° 18:38:34 10° 330° (NNW) 2,039 6.1 -9.5°
Sets 18:40:55 0° 339° (NNW) 2,952 6.8 -9.9°
